Albany, OH

12:40 PM EST on February 26, 2017 (GMT -0500)
Ohio University

Weather History for KUNI - May, 2013

Change the Weather History Date:

Tuesday, May 7, 2013

  Actual Average (KLHQ) Record (KLHQ)
Temperature  
Mean Temperature 58 °F -  
Max Temperature 67 °F 68 °F 87 °F (1936)
Min Temperature 50 °F 42 °F 27 °F (1968)
Degree Days  
Heating Degree Days 6    
Growing Degree Days 8 (Base 50)    
Moisture  
Dew Point 54 °F    
Average Humidity 86    
Maximum Humidity 97    
Minimum Humidity 66    
Precipitation  
Precipitation 0.00 in - - ()
Sea Level Pressure  
Sea Level Pressure 29.94 in    
Wind  
Wind Speed 2 mph (NE)    
Max Wind Speed 13 mph    
Max Gust Speed 16 mph    
Visibility 9 miles    
Events Fog , Rain    
Averages and records for this station are not official NWS values.
T = Trace of Precipitation, MM = Missing Value Source: NWS Daily Summary

Daily Weather History Graph

Daily Weather History Graph

Search for Another Location

Airport or City:

Trip Planner

Search our weather history database for the weather conditions in past years. The results will help you decide how hot, cold, wet, or windy it might be!

Date:

Astronomy

May. 07, 2013 Rise Set
Actual Time 6:23 AM EDT 8:28 PM EDT
Civil Twilight 5:53 AM EDT 8:57 PM EDT
Nautical Twilight 5:17 AM EDT 9:33 PM EDT
Astronomical Twilight 4:38 AM EDT 10:13 PM EDT
Moon 4:55 AM EDT (5/7) 6:27 PM EDT (5/7)
Length of Visible Light 15h 03m
Length of Day
14h 04m
Waning Crescent, 5% of the Moon is Illuminated
May 7
Waning Crescent
May 9
New
May 18
First Quarter
May 25
Full
May 31
Last Quarter

Hourly Weather History & Observations

Time (EDT) Temp. Dew Point Humidity Pressure Visibility Wind Dir Wind Speed Gust Speed Precip Events Conditions
12:15 AM 55.4 °F 53.6 °F 94% 29.95 in 10.0 mi Calm Calm - N/A   Overcast
12:35 AM 55.6 °F 53.6 °F 93% 29.96 in 10.0 mi Calm Calm - N/A   Overcast
12:55 AM 55.4 °F 53.6 °F 94% 29.96 in 10.0 mi Calm Calm - N/A   Overcast
1:15 AM 55.4 °F 53.6 °F 94% 29.95 in 10.0 mi Calm Calm - N/A   Overcast
1:35 AM 54.7 °F 52.9 °F 94% 29.95 in 10.0 mi Calm Calm - N/A   Overcast
1:55 AM 54.5 °F 52.7 °F 94% 29.94 in 10.0 mi Calm Calm - N/A   Overcast
2:15 AM 53.6 °F 52.0 °F 94% 29.93 in 7.0 mi Calm Calm - N/A   Mostly Cloudy
2:35 AM 53.6 °F 52.0 °F 94% 29.93 in 10.0 mi Calm Calm - N/A   Scattered Clouds
2:55 AM 52.9 °F 51.4 °F 95% 29.92 in 5.0 mi Calm Calm - N/A   Clear
3:15 AM 52.9 °F 51.6 °F 95% 29.93 in 7.0 mi Calm Calm - N/A   Scattered Clouds
3:35 AM 53.1 °F 51.8 °F 95% 29.92 in 10.0 mi Calm Calm - N/A   Scattered Clouds
3:55 AM 52.9 °F 51.6 °F 95% 29.92 in 10.0 mi Calm Calm - N/A   Clear
4:15 AM 53.2 °F 52.0 °F 95% 29.92 in 10.0 mi Calm Calm - N/A   Clear
4:35 AM 53.8 °F 52.7 °F 96% 29.92 in 10.0 mi Calm Calm - N/A   Scattered Clouds
4:55 AM 53.6 °F 52.2 °F 95% 29.92 in 10.0 mi Calm Calm - N/A   Clear
5:15 AM 52.5 °F 51.1 °F 95% 29.92 in 5.0 mi Calm Calm - N/A   Scattered Clouds
5:35 AM 53.1 °F 51.8 °F 95% 29.92 in 7.0 mi Calm Calm - N/A   Clear
5:55 AM 52.2 °F 50.9 °F 95% 29.93 in 3.0 mi Calm Calm - N/A   Clear
6:15 AM 50.4 °F 49.3 °F 96% 29.93 in 0.2 mi Calm Calm - N/A Fog Fog
6:35 AM 50.7 °F 49.5 °F 95% 29.94 in 0.5 mi Calm Calm - N/A Fog Fog
6:55 AM 50.4 °F 49.3 °F 96% 29.94 in 0.2 mi Calm Calm - N/A Fog Fog
7:15 AM 50.0 °F 48.9 °F 96% 29.94 in 0.2 mi Calm Calm - N/A Fog Fog
7:35 AM 50.7 °F 49.6 °F 96% 29.95 in 1.5 mi Calm Calm - N/A   Mist
7:55 AM 52.9 °F 51.8 °F 96% 29.95 in 7.0 mi Calm Calm - N/A   Clear
8:15 AM 54.3 °F 53.2 °F 96% 29.95 in 10.0 mi Calm Calm - N/A   Clear
8:35 AM 56.3 °F 55.4 °F 97% 29.95 in 10.0 mi NNE 5.8 mph - N/A   Scattered Clouds
8:55 AM 57.6 °F 56.1 °F 95% 29.96 in 10.0 mi NE 5.8 mph - N/A   Scattered Clouds
9:15 AM 57.6 °F 55.2 °F 92% 29.95 in 10.0 mi NE 3.5 mph - N/A   Scattered Clouds
9:35 AM 58.6 °F 55.4 °F 89% 29.96 in 10.0 mi NE 3.5 mph - N/A   Clear
9:55 AM 59.7 °F 55.6 °F 86% 29.97 in 10.0 mi NE 4.6 mph - N/A   Clear
10:15 AM 62.6 °F 56.7 °F 81% 29.97 in 10.0 mi East 4.6 mph - N/A   Scattered Clouds
10:35 AM 63.7 °F 55.9 °F 76% 29.97 in 10.0 mi East 5.8 mph - N/A   Scattered Clouds
10:55 AM 63.3 °F 55.6 °F 76% 29.96 in 10.0 mi North 4.6 mph - N/A   Scattered Clouds
11:15 AM 64.8 °F 55.8 °F 73% 29.96 in 10.0 mi ENE 4.6 mph - N/A   Mostly Cloudy
11:35 AM 66.2 °F 56.1 °F 70% 29.96 in 10.0 mi Calm Calm - N/A   Scattered Clouds
11:55 AM 66.0 °F 55.8 °F 69% 29.96 in 10.0 mi NE 6.9 mph - N/A   Mostly Cloudy
12:15 PM 67.1 °F 55.4 °F 66% 29.95 in 10.0 mi ENE 5.8 mph - N/A   Scattered Clouds
12:35 PM 66.4 °F 55.0 °F 67% 29.95 in 10.0 mi East 3.5 mph - N/A   Mostly Cloudy
12:55 PM 66.2 °F 55.2 °F 68% 29.95 in 10.0 mi ENE 5.8 mph - N/A   Mostly Cloudy
1:15 PM 65.8 °F 55.4 °F 69% 29.94 in 10.0 mi ENE 4.6 mph - N/A   Mostly Cloudy
1:35 PM 65.1 °F 55.9 °F 72% 29.94 in 10.0 mi ENE 8.1 mph - N/A Rain Light Rain
1:55 PM 61.0 °F 57.4 °F 88% 29.95 in 5.0 mi NE 10.4 mph - N/A Rain Rain
2:15 PM 60.8 °F 58.1 °F 91% 29.95 in 10.0 mi ENE 8.1 mph - N/A Rain Light Rain
2:35 PM 61.0 °F 58.1 °F 90% 29.95 in 10.0 mi NE 6.9 mph - N/A   Light Drizzle
2:55 PM 62.8 °F 58.6 °F 86% 29.94 in 10.0 mi NE 5.8 mph - N/A Rain Light Rain
3:15 PM 62.6 °F 58.1 °F 85% 29.94 in 10.0 mi East 6.9 mph - N/A   Light Drizzle
3:35 PM 63.9 °F 58.1 °F 81% 29.94 in 10.0 mi East 8.1 mph - N/A   Mostly Cloudy
3:55 PM 63.5 °F 56.3 °F 77% 29.94 in 10.0 mi East 8.1 mph - N/A   Mostly Cloudy
4:15 PM 64.8 °F 56.8 °F 75% 29.93 in 10.0 mi ENE 9.2 mph 16.1 mph N/A   Scattered Clouds
4:35 PM 66.4 °F 56.3 °F 70% 29.93 in 10.0 mi ENE 5.8 mph - N/A   Scattered Clouds
4:55 PM 64.6 °F 55.2 °F 72% 29.92 in 10.0 mi NE 8.1 mph - N/A   Mostly Cloudy
5:15 PM 65.8 °F 56.1 °F 71% 29.92 in 10.0 mi ENE 8.1 mph - N/A   Scattered Clouds
5:35 PM 66.6 °F 55.4 °F 67% 29.91 in 10.0 mi East 10.4 mph - N/A   Scattered Clouds
5:55 PM 65.7 °F 55.9 °F 71% 29.91 in 10.0 mi NE 6.9 mph - N/A   Mostly Cloudy
6:15 PM 65.5 °F 55.0 °F 69% 29.92 in 10.0 mi NE 8.1 mph - N/A   Mostly Cloudy
6:35 PM 64.9 °F 55.2 °F 71% 29.92 in 10.0 mi NNE 8.1 mph - N/A   Mostly Cloudy
6:55 PM 64.4 °F 55.6 °F 73% 29.92 in 10.0 mi NE 6.9 mph - N/A   Scattered Clouds
7:15 PM 64.0 °F 55.4 °F 73% 29.92 in 10.0 mi North 4.6 mph - N/A   Mostly Cloudy
7:35 PM 63.7 °F 55.6 °F 75% 29.93 in 10.0 mi NNE 4.6 mph - N/A   Mostly Cloudy
7:55 PM 62.6 °F 55.8 °F 78% 29.93 in 10.0 mi NNE 3.5 mph - N/A   Light Drizzle
8:15 PM 61.3 °F 54.5 °F 78% 29.93 in 10.0 mi ENE 12.7 mph - N/A Rain Light Rain
8:35 PM 58.1 °F 54.0 °F 86% 29.94 in 10.0 mi NE 3.5 mph - N/A   Scattered Clouds
8:55 PM 56.5 °F 53.1 °F 88% 29.94 in 10.0 mi NE 4.6 mph - N/A   Scattered Clouds
9:15 PM 55.9 °F 52.9 °F 89% 29.94 in 10.0 mi NE 3.5 mph - N/A   Clear
9:35 PM 55.6 °F 52.9 °F 91% 29.95 in 10.0 mi Calm Calm - N/A   Clear
9:55 PM 54.0 °F 51.6 °F 92% 29.95 in 10.0 mi Calm Calm - N/A   Clear
10:15 PM 54.7 °F 52.7 °F 93% 29.95 in 10.0 mi Calm Calm - N/A   Clear
10:35 PM 54.0 °F 52.2 °F 94% 29.95 in 10.0 mi Calm Calm - N/A   Clear
10:55 PM 53.6 °F 51.8 °F 94% 29.95 in 10.0 mi Calm Calm - N/A   Clear
11:15 PM 52.7 °F 50.9 °F 94% 29.95 in 10.0 mi Calm Calm - N/A   Clear
11:35 PM 53.6 °F 52.3 °F 95% 29.95 in 10.0 mi Calm Calm - N/A   Clear
11:55 PM 51.3 °F 49.8 °F 95% 29.95 in 3.0 mi Calm Calm - N/A   Clear